Regional Weather Roundup
Issued by NWS Northern Indiana

Home | Current Version | Previous Version | Graphics & Text | Print | Product List | Glossary On
Versions: 1 2 3 4 5 6 7 8 9 10 11 12 13 14 15 16 17 18 19 20 21 22 23 24 25 26 27 28 29 30 31 32 33 34 35 36 37 38 39 40 41 42 43 44 45 46 47 48 49 50
000
ASUS43 KIWX 240300
RWRIWX

KIWX WEATHER ROUNDUP
NATIONAL WEATHER SERVICE NORTHERN INDIANA
1100 PM EDT MON MAY 23 2016

NOTE: "FAIR" INDICATES FEW OR NO CLOUDS BELOW 12,000 FEET WITH NO
SIGNIFICANT WEATHER AND/OR OBSTRUCTIONS TO VISIBILITY.

* THESE STATIONS ARE NOT UNDER NWS QUALITY CONTROL. THEY ALSO MAY NOT
  REPORT WEATHER SUCH AS PRECIPITATION OR FOG.

INZ001>027-240400-
NORTHERN INDIANA

CITY           SKY/WX    TMP DP  RH WIND       PRES   REMARKS
GARY*          MOCLDY    72  50  46 SE8       29.94R
SOUTH BEND     CLEAR     64  37  36 SE7       29.98S
GOSHEN         CLEAR     59  34  39 SE7       30.00R
ANGOLA*        CLEAR     54  46  76 CALM      30.02S
FORT WAYNE     PTCLDY    60  45  57 CALM      30.02R

$$
INZ028>050-240400-
CENTRAL INDIANA

CITY           SKY/WX    TMP DP  RH WIND       PRES   REMARKS
LAFAYETTE      PTCLDY    62  44  51 CALM      29.98R
KOKOMO*        CLEAR     57  43  58 SE7       30.01R
MUNCIE*        CLEAR     68  42  38 S5        30.03R
INDIANAPOLIS   CLEAR     66  39  37 S9        30.00R

$$
MIZ043>046-050>051-056>058-064>065-071>073-077>080-240400-
SOUTHWEST LOWER MICHIGAN

CITY           SKY/WX    TMP DP  RH WIND       PRES   REMARKS
BATTLE CREEK   CLEAR     63  36  36 SE7       30.01R
BENTON HARBOR  CLEAR     57  47  69 SE6       29.96S
COLDWATER*     CLEAR     55  39  54 CALM      30.02R
HILLSDALE*     CLEAR     57  39  51 CALM      30.03S
HOLLAND        CLEAR     59  45  59 SE3       29.96S
GRAND RAPIDS   CLEAR     59  47  64 SE7       29.98S
KALAMAZOO      CLEAR     64  36  35 SE5       30.00S
STURGIS*       CLEAR     58  37  46 SE6       30.00S
THREE RIVERS*  FAIR      61  38  42 SE3       30.00S

$$
OHZ001>008-015>018-024>025-240400-
NORTHWEST OHIO

CITY           SKY/WX    TMP DP  RH WIND       PRES   REMARKS
DEFIANCE       CLEAR     59  46  62 CALM      30.02
FINDLAY        CLEAR     62  46  55 CALM      30.02R
TOLEDO EXPRESS CLEAR     57  48  72 CALM      30.02R
TOLEDO METCALF CLEAR     62  48  60 SE3       30.03R
LIMA           CLEAR     62  47  57 SE5       30.03R

$$
AND FOR LAKE MICHIGAN COASTAL AND OPEN LAKE BUOY OBSERVATIONS

STATION/POSITION TEMP    WIND        PRES    VSBY  WAVE
                 AIR SEA DIR/SP/G                  HT/PER
                 (F)     (DEG/KT/KT) (MB)    (MI)  (FT/S)
CALUMET HARBOR    63     100/  6/  9 1012.7
MICHIGAN CITY     71     120/  6/  7   N/A
BURNS HARBOR      75     160/  8/ 16 1014.2S
SAINT JOSEPH      67      CALM  /  3 1014.6F
SOUTH LAKE BUOY   58 51  130/ 10/ 10 1013.0          0
4 MI NW BRIDGMAN  65 61  110/  6/  6   N/A           0
MICHIGAN CITY     62 58  100/  6/  8   N/A           0

$$
&&




USA.gov is the U.S. government's official web portal to all federal, state and local government web resources and services.